STARLINK-32322, 61720

Orbit data source: Space-Track

STARLINK-32322, 61720 is a payload satellite owned by SpaceX/Seattle (US) in LEO that was launched on Wed, 30 Oct 2024 UTC via an FALCON 9 launch vehicle from the Air Force Eastern Test Range (AFETR). Payloads include a variety of satellites, spacecraft, and rockets equipped with specific instruments for various scientific and technological missions. These include communications satellites like Starlink; space stations such as the ISS; scientific satellites like the Hubble; Earth observation satellites from companies like Planet Labs, Umbra, and HawkEye 360; GPS; miniature CubeSats for education and research; and military/defense satellites.

Loading next visibility...
STARLINK-32322 details
Identifier
61720, 2024-196P
Orbit
LEO
Last TLE update6 hours ago
Origin
Flag of USSpaceX/Seattle (US)
ManufacturerSpaceX/Seattle
MissionOperational spacecraft
Bus & MotorSTARLINK V2M, Unknown motor
Mass730 kg wet, ~700 kg dry
Launch date (UTC)
2024-10-30 (2 months ago)
Launch vehicle
FALCON 9
Launch site
Air Force Eastern Test Range (AFETR)
Object type
Payload
Rocket body
Debris
Shape & HBRUnknown
Radar Cross SectionLarge (>1 m²)

Expand to show TLE details & history

TLE from 6 hours ago
0 STARLINK-32322
1 61720U 24196P   24361.16357970 -.00000147  00000-0  62963-5 0  9996
2 61720  53.1624 340.5702 0001016 118.9680 241.1427 15.39627017 10004
Epoch: 2024-12-26T03:55Z
Definitive object data (Epoch: 2024-12-26T03:55:33.286Z)
Latitude0.00001°
Longitude-173.4654°
Altitude448.45 km
Speed7.644 km/s
True Right ascension22h 42m 16s
True Declination0° 00' 00"
Sunlit
Object was in daylight at TLE epoch
Visualization TLE readout
Latitude-40.33474°
Longitude146.11741°
Altitude461.206 km
Speed7.635 km/s
Apparent Right ascension20h 37m 23s
Apparent Declination-40° 20' 21"
Sunlit
Object is in daylight
Visualization observer readout
Local Sidereal Time09:16:36
Azimuth96.387° ESE
Elevation-82.496°
Doppler factor1
Orbital elements
Apogee altitude448.162 km
Perigee altitude446.775 km
Semi-major axis6,825.605 km
Eccentricity0.0001016
Inclination53.1624°
RAAN340.5702°
Arg. of periapsis118.968°
True anomaly241.1325°
Mean anomaly241.1427°
Eccentric anomaly241.1376°
Mean motion3.84885 °/min
BSTAR0.0000062963
Orbital period93.53 mins
Loading maneuver chart data...
Loading historical data...
Loading historical data...
Loading historical data...
Loading historical data...
Loading historical data...
Loading historical data...
Loading historical data...

STARLINK-32322 Visibility forecast

Observer location: undefined°, undefined

Span
Click to sort rows by Start time (UTC) header in descending order
Start Az.
Max El. time (UTC)
Max El. Az.
Max El.
End time (UTC)
End Az.
5 mins2024-12-27 01:56:30.220Z249.316° W2024-12-27 01:58:30.220Z293.391° NW37.604°2024-12-27 02:01:30.220Z38.603° NE
5 mins2024-12-27 08:29:30.220Z301.281° NW2024-12-27 08:31:30.220Z212.068° SW43.125°2024-12-27 08:34:30.220Z139.621° SSE
|